Year,Month,Day,Hour,Minute,Value (Times are PST for temperature in C)
2006,07,14,00,00,14.20
2006,07,14,00,01,14.30
2006,07,14,00,02,14.30
2006,07,14,00,03,14.30
2006,07,14,00,04,14.40
2006,07,14,00,05,14.40
2006,07,14,00,06,14.50
2006,07,14,00,07,14.60
2006,07,14,00,08,14.60
2006,07,14,00,09,14.70
2006,07,14,00,10,14.80
2006,07,14,00,11,14.80
2006,07,14,00,12,14.80
2006,07,14,00,13,14.80
2006,07,14,00,14,14.80
2006,07,14,00,15,14.80
2006,07,14,00,16,14.80
2006,07,14,00,17,14.80
2006,07,14,00,18,14.80
2006,07,14,00,19,14.80
2006,07,14,00,20,14.80
2006,07,14,00,21,14.80
2006,07,14,00,22,14.80
2006,07,14,00,23,14.80
2006,07,14,00,24,14.80
2006,07,14,00,25,14.80
2006,07,14,00,26,14.80
2006,07,14,00,27,14.80
2006,07,14,00,28,14.80
2006,07,14,00,29,14.80
2006,07,14,00,30,14.80
2006,07,14,00,31,14.80
2006,07,14,00,32,14.90
2006,07,14,00,33,14.90
2006,07,14,00,34,15.00
2006,07,14,00,35,15.00
2006,07,14,00,36,15.10
2006,07,14,00,37,15.10
2006,07,14,00,38,15.10
2006,07,14,00,39,15.10
2006,07,14,00,40,15.10
2006,07,14,00,41,15.10
2006,07,14,00,42,15.00
2006,07,14,00,43,15.00
2006,07,14,00,44,15.00
2006,07,14,00,45,15.00
2006,07,14,00,46,14.90
2006,07,14,00,47,14.90
2006,07,14,00,48,14.90
2006,07,14,00,49,14.80
2006,07,14,00,50,14.80
2006,07,14,00,51,14.80
2006,07,14,00,52,14.80
2006,07,14,00,53,14.80
2006,07,14,00,54,14.80
2006,07,14,00,55,14.80
2006,07,14,00,56,14.80
2006,07,14,00,57,14.80
2006,07,14,00,58,14.80
2006,07,14,00,59,14.80
2006,07,14,01,00,14.80
2006,07,14,01,01,14.80
2006,07,14,01,02,14.80
2006,07,14,01,03,14.80
2006,07,14,01,04,14.70
2006,07,14,01,05,14.70
2006,07,14,01,06,14.70
2006,07,14,01,07,14.60
2006,07,14,01,08,14.60
2006,07,14,01,09,14.60
2006,07,14,01,10,14.60
2006,07,14,01,11,14.60
2006,07,14,01,12,14.50
2006,07,14,01,13,14.50
2006,07,14,01,14,14.50
2006,07,14,01,15,14.40
2006,07,14,01,16,14.40
2006,07,14,01,17,14.40
2006,07,14,01,18,14.50
2006,07,14,01,19,14.50
2006,07,14,01,20,14.60
2006,07,14,01,21,14.60
2006,07,14,01,22,14.60
2006,07,14,01,23,14.60
2006,07,14,01,24,14.60
2006,07,14,01,25,14.60
2006,07,14,01,26,14.60
2006,07,14,01,27,14.70
2006,07,14,01,28,14.70
2006,07,14,01,29,14.70
2006,07,14,01,30,14.70
2006,07,14,01,31,14.80
2006,07,14,01,32,14.80
2006,07,14,01,33,14.80
2006,07,14,01,34,14.70
2006,07,14,01,35,14.60
2006,07,14,01,36,14.50
2006,07,14,01,37,14.50
2006,07,14,01,38,14.40
2006,07,14,01,39,14.30
2006,07,14,01,40,14.30
2006,07,14,01,41,14.30
2006,07,14,01,42,14.30
2006,07,14,01,43,14.20
2006,07,14,01,44,14.00
2006,07,14,01,45,13.90
2006,07,14,01,46,13.80
2006,07,14,01,47,13.70
2006,07,14,01,48,13.70
2006,07,14,01,49,13.70
2006,07,14,01,50,13.70
2006,07,14,01,51,13.60
2006,07,14,01,52,13.60
2006,07,14,01,53,13.50
2006,07,14,01,54,13.50
2006,07,14,01,55,13.50
2006,07,14,01,56,13.50
2006,07,14,01,57,13.50
2006,07,14,01,58,13.40
2006,07,14,01,59,13.40
2006,07,14,02,00,13.30
2006,07,14,02,01,13.30
2006,07,14,02,02,13.30
2006,07,14,02,03,13.20
2006,07,14,02,04,13.20
2006,07,14,02,05,13.10
2006,07,14,02,06,13.10
2006,07,14,02,07,13.10
2006,07,14,02,08,13.00
2006,07,14,02,09,13.00
2006,07,14,02,10,12.90
2006,07,14,02,11,12.90
2006,07,14,02,12,12.90
2006,07,14,02,13,12.80
2006,07,14,02,14,12.80
2006,07,14,02,15,12.80
2006,07,14,02,16,12.80
2006,07,14,02,17,12.80
2006,07,14,02,18,12.80
2006,07,14,02,19,12.80
2006,07,14,02,20,12.70
2006,07,14,02,21,12.70
2006,07,14,02,22,12.70
2006,07,14,02,23,12.70
2006,07,14,02,24,12.70
2006,07,14,02,25,12.70
2006,07,14,02,26,12.70
2006,07,14,02,27,12.70
2006,07,14,02,28,12.70
2006,07,14,02,29,12.70
2006,07,14,02,30,12.70
2006,07,14,02,31,12.70
2006,07,14,02,32,12.70
2006,07,14,02,33,12.70
2006,07,14,02,34,12.60
2006,07,14,02,35,12.60
2006,07,14,02,36,12.60
2006,07,14,02,37,12.50
2006,07,14,02,38,12.50
2006,07,14,02,39,12.40
2006,07,14,02,40,12.30
2006,07,14,02,41,12.30
2006,07,14,02,42,12.20
2006,07,14,02,43,12.20
2006,07,14,02,44,12.20
2006,07,14,02,45,12.10
2006,07,14,02,46,12.10
2006,07,14,02,47,12.10
2006,07,14,02,48,12.10
2006,07,14,02,49,12.10
2006,07,14,02,50,12.10
2006,07,14,02,51,12.10
2006,07,14,02,52,12.10
2006,07,14,02,53,12.10
2006,07,14,02,54,12.10
2006,07,14,02,55,12.10
2006,07,14,02,56,12.10
2006,07,14,02,57,12.20
2006,07,14,02,58,12.20
2006,07,14,02,59,12.30
2006,07,14,03,00,12.30
2006,07,14,03,01,12.30
2006,07,14,03,02,12.30
2006,07,14,03,03,12.40
2006,07,14,03,04,12.50
2006,07,14,03,05,12.50
2006,07,14,03,06,12.50
2006,07,14,03,07,12.60
2006,07,14,03,08,12.60
2006,07,14,03,09,12.70
2006,07,14,03,10,12.80
2006,07,14,03,11,12.80
2006,07,14,03,12,12.80
2006,07,14,03,13,12.80
2006,07,14,03,14,12.90
2006,07,14,03,15,13.00
2006,07,14,03,16,13.00
2006,07,14,03,17,13.10
2006,07,14,03,18,13.20
2006,07,14,03,19,13.30
2006,07,14,03,20,13.30
2006,07,14,03,21,13.30
2006,07,14,03,22,13.30
2006,07,14,03,23,13.30
2006,07,14,03,24,13.30
2006,07,14,03,25,13.30
2006,07,14,03,26,13.30
2006,07,14,03,27,13.30
2006,07,14,03,28,13.30
2006,07,14,03,29,13.30
2006,07,14,03,30,13.30
2006,07,14,03,31,13.30
2006,07,14,03,32,13.30
2006,07,14,03,33,13.30
2006,07,14,03,34,13.30
2006,07,14,03,35,13.30
2006,07,14,03,36,13.30
2006,07,14,03,37,13.30
2006,07,14,03,38,13.30
2006,07,14,03,39,13.30
2006,07,14,03,40,13.20
2006,07,14,03,41,13.20
2006,07,14,03,42,13.30
2006,07,14,03,43,13.30
2006,07,14,03,44,13.30
2006,07,14,03,45,13.30
2006,07,14,03,46,13.30
2006,07,14,03,47,13.30
2006,07,14,03,48,13.30
2006,07,14,03,49,13.30
2006,07,14,03,50,13.30
2006,07,14,03,51,13.30
2006,07,14,03,52,13.30
2006,07,14,03,53,13.30
2006,07,14,03,54,13.20
2006,07,14,03,55,13.20
2006,07,14,03,56,13.20
2006,07,14,03,57,13.20
2006,07,14,03,58,13.30
2006,07,14,03,59,13.30
2006,07,14,04,00,13.30
2006,07,14,04,01,13.30
2006,07,14,04,02,13.30
2006,07,14,04,03,13.30
2006,07,14,04,04,13.30
2006,07,14,04,05,13.30
2006,07,14,04,06,13.30
2006,07,14,04,07,13.30
2006,07,14,04,08,13.30
2006,07,14,04,09,13.30
2006,07,14,04,10,13.30
2006,07,14,04,11,13.30
2006,07,14,04,12,13.30
2006,07,14,04,13,13.30
2006,07,14,04,14,13.30
2006,07,14,04,15,13.30
2006,07,14,04,16,13.30
2006,07,14,04,17,13.30
2006,07,14,04,18,13.30
2006,07,14,04,19,13.30
2006,07,14,04,20,13.30
2006,07,14,04,21,13.30
2006,07,14,04,22,13.20
2006,07,14,04,23,13.20
2006,07,14,04,24,13.30
2006,07,14,04,25,13.30
2006,07,14,04,26,13.30
2006,07,14,04,27,13.30
2006,07,14,04,28,13.30
2006,07,14,04,29,13.30
2006,07,14,04,30,13.40
2006,07,14,04,31,13.50
2006,07,14,04,32,13.60
2006,07,14,04,33,13.50
2006,07,14,04,34,13.50
2006,07,14,04,35,13.50
2006,07,14,04,36,13.40
2006,07,14,04,37,13.40
2006,07,14,04,38,13.50
2006,07,14,04,39,13.50
2006,07,14,04,40,13.40
2006,07,14,04,41,13.30
2006,07,14,04,42,13.30
2006,07,14,04,43,13.30
2006,07,14,04,44,13.20
2006,07,14,04,45,13.20
2006,07,14,04,46,13.20
2006,07,14,04,47,13.20
2006,07,14,04,48,13.10
2006,07,14,04,49,13.00
2006,07,14,04,50,13.00
2006,07,14,04,51,13.00
2006,07,14,04,52,13.00
2006,07,14,04,53,13.00
2006,07,14,04,54,13.00
2006,07,14,04,55,13.00
2006,07,14,04,56,13.00
2006,07,14,04,57,13.00
2006,07,14,04,58,13.00
2006,07,14,04,59,13.00
2006,07,14,05,00,13.00
2006,07,14,05,01,12.90
2006,07,14,05,02,12.80
2006,07,14,05,03,12.70
2006,07,14,05,04,12.60
2006,07,14,05,05,12.50
2006,07,14,05,06,12.50
2006,07,14,05,07,12.40
2006,07,14,05,08,12.40
2006,07,14,05,09,12.40
2006,07,14,05,10,12.30
2006,07,14,05,11,12.30
2006,07,14,05,12,12.30
2006,07,14,05,13,12.30
2006,07,14,05,14,12.30
2006,07,14,05,15,12.30
2006,07,14,05,16,12.30
2006,07,14,05,17,12.20
2006,07,14,05,18,12.20
2006,07,14,05,19,12.20
2006,07,14,05,20,12.10
2006,07,14,05,21,12.10
2006,07,14,05,22,12.20
2006,07,14,05,23,12.20
2006,07,14,05,24,12.20
2006,07,14,05,25,12.20
2006,07,14,05,26,12.20
2006,07,14,05,27,12.10
2006,07,14,05,28,12.10
2006,07,14,05,29,12.10
2006,07,14,05,30,12.10
2006,07,14,05,31,12.00
2006,07,14,05,32,12.10
2006,07,14,05,33,12.10
2006,07,14,05,34,12.10
2006,07,14,05,35,12.10
2006,07,14,05,36,12.10
2006,07,14,05,37,12.20
2006,07,14,05,38,12.20
2006,07,14,05,39,12.20
2006,07,14,05,40,12.20
2006,07,14,05,41,12.20
2006,07,14,05,42,12.20
2006,07,14,05,43,12.20
2006,07,14,05,44,12.10
2006,07,14,05,45,12.10
2006,07,14,05,46,12.10
2006,07,14,05,47,12.00
2006,07,14,05,48,12.00
2006,07,14,05,49,12.00
2006,07,14,05,50,12.00
2006,07,14,05,51,12.00
2006,07,14,05,52,12.10
2006,07,14,05,53,12.10
2006,07,14,05,54,12.10
2006,07,14,05,55,12.10
2006,07,14,05,56,12.10
2006,07,14,05,57,12.10
2006,07,14,05,58,12.10
2006,07,14,05,59,12.00
2006,07,14,06,00,12.00
2006,07,14,06,01,12.00
2006,07,14,06,02,12.00
2006,07,14,06,03,12.00
2006,07,14,06,04,12.00
2006,07,14,06,05,12.00
2006,07,14,06,06,12.00
2006,07,14,06,07,12.00
2006,07,14,06,08,12.00
2006,07,14,06,09,12.00
2006,07,14,06,10,12.00
2006,07,14,06,11,12.00
2006,07,14,06,12,12.00
2006,07,14,06,13,12.00
2006,07,14,06,14,12.00
2006,07,14,06,15,12.00
2006,07,14,06,16,12.10
2006,07,14,06,17,12.10
2006,07,14,06,18,12.10
2006,07,14,06,19,12.20
2006,07,14,06,20,12.20
2006,07,14,06,21,12.20
2006,07,14,06,22,12.20
2006,07,14,06,23,12.20
2006,07,14,06,24,12.30
2006,07,14,06,25,12.30
2006,07,14,06,26,12.30
2006,07,14,06,27,12.30
2006,07,14,06,28,12.40
2006,07,14,06,29,12.40
2006,07,14,06,30,12.40
2006,07,14,06,31,12.40
2006,07,14,06,32,12.40
2006,07,14,06,33,12.40
2006,07,14,06,34,12.50
2006,07,14,06,35,12.50
2006,07,14,06,36,12.50
2006,07,14,06,37,12.50
2006,07,14,06,38,12.50
2006,07,14,06,39,12.50
2006,07,14,06,40,12.60
2006,07,14,06,41,12.60
2006,07,14,06,42,12.60
2006,07,14,06,43,12.60
2006,07,14,06,44,12.60
2006,07,14,06,45,12.60
2006,07,14,06,46,12.60
2006,07,14,06,47,12.70
2006,07,14,06,48,12.70
2006,07,14,06,49,12.70
2006,07,14,06,50,12.70
2006,07,14,06,51,12.70
2006,07,14,06,52,12.80
2006,07,14,06,53,12.80
2006,07,14,06,54,12.90
2006,07,14,06,55,12.90
2006,07,14,06,56,12.90
2006,07,14,06,57,12.90
2006,07,14,06,58,13.00
2006,07,14,06,59,13.00
2006,07,14,07,00,13.00
2006,07,14,07,01,13.10
2006,07,14,07,02,13.10
2006,07,14,07,03,13.00
2006,07,14,07,04,13.00
2006,07,14,07,05,13.00
2006,07,14,07,06,13.00
2006,07,14,07,07,13.00
2006,07,14,07,08,12.90
2006,07,14,07,09,12.90
2006,07,14,07,10,13.00
2006,07,14,07,11,13.00
2006,07,14,07,12,13.00
2006,07,14,07,13,13.10
2006,07,14,07,14,13.10
2006,07,14,07,15,13.10
2006,07,14,07,16,13.10
2006,07,14,07,17,13.10
2006,07,14,07,18,13.10
2006,07,14,07,19,13.20
2006,07,14,07,20,13.20
2006,07,14,07,21,13.20
2006,07,14,07,22,13.20
2006,07,14,07,23,13.20
2006,07,14,07,24,13.20
2006,07,14,07,25,13.20
2006,07,14,07,26,13.20
2006,07,14,07,27,13.20
2006,07,14,07,28,13.30
2006,07,14,07,29,13.30
2006,07,14,07,30,13.30
2006,07,14,07,31,13.30
2006,07,14,07,32,13.20
2006,07,14,07,33,13.30
2006,07,14,07,34,13.30
2006,07,14,07,35,13.30
2006,07,14,07,36,13.30
2006,07,14,07,37,13.30
2006,07,14,07,38,13.30
2006,07,14,07,39,13.30
2006,07,14,07,40,13.30
2006,07,14,07,41,13.30
2006,07,14,07,42,13.40
2006,07,14,07,43,13.50
2006,07,14,07,44,13.60
2006,07,14,07,45,13.70
2006,07,14,07,46,13.70
2006,07,14,07,47,13.70
2006,07,14,07,48,13.70
2006,07,14,07,49,13.80
2006,07,14,07,50,13.90
2006,07,14,07,51,14.00
2006,07,14,07,52,14.10
2006,07,14,07,53,14.20
2006,07,14,07,54,14.20
2006,07,14,07,55,14.20
2006,07,14,07,56,14.40
2006,07,14,07,57,14.50
2006,07,14,07,58,14.50
2006,07,14,07,59,14.60
2006,07,14,08,00,14.70
2006,07,14,08,01,14.80
2006,07,14,08,02,15.00
2006,07,14,08,03,15.10
2006,07,14,08,04,15.20
2006,07,14,08,05,15.30
2006,07,14,08,06,15.30
2006,07,14,08,07,15.50
2006,07,14,08,08,15.70
2006,07,14,08,09,15.70
2006,07,14,08,10,15.80
2006,07,14,08,11,15.80
2006,07,14,08,12,15.80
2006,07,14,08,13,15.80
2006,07,14,08,14,15.80
2006,07,14,08,15,15.80
2006,07,14,08,16,15.80
2006,07,14,08,17,15.90
2006,07,14,08,18,15.90
2006,07,14,08,19,15.80
2006,07,14,08,20,15.80
2006,07,14,08,21,15.80
2006,07,14,08,22,15.80
2006,07,14,08,23,15.80
2006,07,14,08,24,15.80
2006,07,14,08,25,15.80
2006,07,14,08,26,15.70
2006,07,14,08,27,15.60
2006,07,14,08,28,15.50
2006,07,14,08,29,15.50
2006,07,14,08,30,15.50
2006,07,14,08,31,15.50
2006,07,14,08,32,15.40
2006,07,14,08,33,15.30
2006,07,14,08,34,15.30
2006,07,14,08,35,15.30
2006,07,14,08,36,15.20
2006,07,14,08,37,15.20
2006,07,14,08,38,15.20
2006,07,14,08,39,15.20
2006,07,14,08,40,15.00
2006,07,14,08,41,15.00
2006,07,14,08,42,15.10
2006,07,14,08,43,15.20
2006,07,14,08,44,15.20
2006,07,14,08,45,15.20
2006,07,14,08,46,15.30
2006,07,14,08,47,15.30
2006,07,14,08,48,15.30
2006,07,14,08,49,15.20
2006,07,14,08,50,15.10
2006,07,14,08,51,14.90
2006,07,14,08,52,14.80
2006,07,14,08,53,14.80
2006,07,14,08,54,14.80
2006,07,14,08,55,14.80
2006,07,14,08,56,14.80
2006,07,14,08,57,14.90
2006,07,14,08,58,15.00
2006,07,14,08,59,15.10
2006,07,14,09,00,15.20
2006,07,14,09,01,15.10
2006,07,14,09,02,15.00
2006,07,14,09,03,14.90
2006,07,14,09,04,14.80
2006,07,14,09,05,14.80
2006,07,14,09,06,14.80
2006,07,14,09,07,14.90
2006,07,14,09,08,15.00
2006,07,14,09,09,15.20
2006,07,14,09,10,15.30
2006,07,14,09,11,15.20
2006,07,14,09,12,15.20
2006,07,14,09,13,15.20
2006,07,14,09,14,15.20
2006,07,14,09,15,15.30
2006,07,14,09,16,15.30
2006,07,14,09,17,15.30
2006,07,14,09,18,15.30
2006,07,14,09,19,15.30
2006,07,14,09,20,15.40
2006,07,14,09,21,15.40
2006,07,14,09,22,15.40
2006,07,14,09,23,15.50
2006,07,14,09,24,15.50
2006,07,14,09,25,15.60
2006,07,14,09,26,15.60
2006,07,14,09,27,15.70
2006,07,14,09,28,15.70
2006,07,14,09,29,15.70
2006,07,14,09,30,15.80
2006,07,14,09,31,15.90
2006,07,14,09,32,16.10
2006,07,14,09,33,16.10
2006,07,14,09,34,16.20
2006,07,14,09,35,16.20
2006,07,14,09,36,16.10
2006,07,14,09,37,16.00
2006,07,14,09,38,15.80
2006,07,14,09,39,15.80
2006,07,14,09,40,15.60
2006,07,14,09,41,15.60
2006,07,14,09,42,15.50
2006,07,14,09,43,15.40
2006,07,14,09,44,15.40
2006,07,14,09,45,15.40
2006,07,14,09,46,15.40
2006,07,14,09,47,15.40
2006,07,14,09,48,15.40
2006,07,14,09,49,15.40
2006,07,14,09,50,15.30
2006,07,14,09,51,15.50
2006,07,14,09,52,15.50
2006,07,14,09,53,15.40
2006,07,14,09,54,15.40
2006,07,14,09,55,15.40
2006,07,14,09,56,15.40
2006,07,14,09,57,15.50
2006,07,14,09,58,15.50
2006,07,14,09,59,15.60
2006,07,14,10,00,15.60
2006,07,14,10,01,15.50
2006,07,14,10,02,15.60
2006,07,14,10,03,15.60
2006,07,14,10,04,15.80
2006,07,14,10,05,15.90
2006,07,14,10,06,15.90
2006,07,14,10,07,16.10
2006,07,14,10,08,15.90
2006,07,14,10,09,15.80
2006,07,14,10,10,15.80
2006,07,14,10,11,15.80
2006,07,14,10,12,15.80
2006,07,14,10,13,15.80
2006,07,14,10,14,15.80
2006,07,14,10,15,15.80
2006,07,14,10,16,15.80
2006,07,14,10,17,15.80
2006,07,14,10,18,15.80
2006,07,14,10,19,15.90
2006,07,14,10,20,16.00
2006,07,14,10,21,16.30
2006,07,14,10,22,16.40
2006,07,14,10,23,16.60
2006,07,14,10,24,16.60
2006,07,14,10,25,16.50
2006,07,14,10,26,16.30
2006,07,14,10,27,16.10
2006,07,14,10,28,16.00
2006,07,14,10,29,15.80
2006,07,14,10,30,15.70
2006,07,14,10,31,15.60
2006,07,14,10,32,15.60
2006,07,14,10,33,15.60
2006,07,14,10,34,15.30
2006,07,14,10,35,15.30
2006,07,14,10,36,15.30
2006,07,14,10,37,15.40
2006,07,14,10,38,15.60
2006,07,14,10,39,15.70
2006,07,14,10,40,15.70
2006,07,14,10,41,15.70
2006,07,14,10,42,15.60
2006,07,14,10,43,15.60
2006,07,14,10,44,15.60
2006,07,14,10,45,15.70
2006,07,14,10,46,15.80
2006,07,14,10,47,15.60
2006,07,14,10,48,15.50
2006,07,14,10,49,15.40
2006,07,14,10,50,15.30
2006,07,14,10,51,15.30
2006,07,14,10,52,15.40
2006,07,14,10,53,15.50
2006,07,14,10,54,15.60
2006,07,14,10,55,15.60
2006,07,14,10,56,15.50
2006,07,14,10,57,15.30
2006,07,14,10,58,15.30
2006,07,14,10,59,15.30
2006,07,14,11,00,15.30
2006,07,14,11,01,15.40
2006,07,14,11,02,15.50
2006,07,14,11,03,15.50
2006,07,14,11,04,15.60
2006,07,14,11,05,15.80
2006,07,14,11,06,15.80
2006,07,14,11,07,15.70
2006,07,14,11,08,15.60
2006,07,14,11,09,15.50
2006,07,14,11,10,15.50
2006,07,14,11,11,15.50
2006,07,14,11,12,15.60
2006,07,14,11,13,15.60
2006,07,14,11,14,15.50
2006,07,14,11,15,15.40
2006,07,14,11,16,15.50
2006,07,14,11,17,15.60
2006,07,14,11,18,15.70
2006,07,14,11,19,15.90
2006,07,14,11,20,16.00
2006,07,14,11,21,16.10
2006,07,14,11,22,16.20
2006,07,14,11,23,16.20
2006,07,14,11,24,16.20
2006,07,14,11,25,16.40
2006,07,14,11,26,16.60
2006,07,14,11,27,16.70
2006,07,14,11,28,16.70
2006,07,14,11,29,16.60
2006,07,14,11,30,16.60
2006,07,14,11,31,16.70
2006,07,14,11,32,16.80
2006,07,14,11,33,16.90
2006,07,14,11,34,17.10
2006,07,14,11,35,17.20
2006,07,14,11,36,17.30
2006,07,14,11,37,17.20
2006,07,14,11,38,17.10
2006,07,14,11,39,17.10
2006,07,14,11,40,17.00
2006,07,14,11,41,16.90
2006,07,14,11,42,16.80
2006,07,14,11,43,16.70
2006,07,14,11,44,16.70
2006,07,14,11,45,16.60
2006,07,14,11,46,16.60
2006,07,14,11,47,16.70
2006,07,14,11,48,16.90
2006,07,14,11,49,16.90
2006,07,14,11,50,16.90
2006,07,14,11,51,16.90
2006,07,14,11,52,17.10
2006,07,14,11,53,17.30
2006,07,14,11,54,17.40
2006,07,14,11,55,17.50
2006,07,14,11,56,17.50
2006,07,14,11,57,17.50
2006,07,14,11,58,17.40
2006,07,14,11,59,17.30
2006,07,14,12,00,17.30
2006,07,14,12,01,17.40
2006,07,14,12,02,17.40
2006,07,14,12,03,17.40
2006,07,14,12,04,17.30
2006,07,14,12,05,17.10
2006,07,14,12,06,17.00
2006,07,14,12,07,16.90
2006,07,14,12,08,16.70
2006,07,14,12,09,16.70
2006,07,14,12,10,16.70
2006,07,14,12,11,16.60
2006,07,14,12,12,16.60
2006,07,14,12,13,16.60
2006,07,14,12,14,16.50
2006,07,14,12,15,16.40
2006,07,14,12,16,16.40
2006,07,14,12,17,16.40
2006,07,14,12,18,16.40
2006,07,14,12,19,16.50
2006,07,14,12,20,16.60
2006,07,14,12,21,16.70
2006,07,14,12,22,16.70
2006,07,14,12,23,16.70
2006,07,14,12,24,16.70
2006,07,14,12,25,16.80
2006,07,14,12,26,16.90
2006,07,14,12,27,17.00
2006,07,14,12,28,17.20
2006,07,14,12,29,17.30
2006,07,14,12,30,17.40
2006,07,14,12,31,17.50
2006,07,14,12,32,17.60
2006,07,14,12,33,17.70
2006,07,14,12,34,17.80
2006,07,14,12,35,17.90
2006,07,14,12,36,18.10
2006,07,14,12,37,18.20
2006,07,14,12,38,18.10
2006,07,14,12,39,18.10
2006,07,14,12,40,18.20
2006,07,14,12,41,18.40
2006,07,14,12,42,18.50
2006,07,14,12,43,18.70
2006,07,14,12,44,18.60
2006,07,14,12,45,18.60
2006,07,14,12,46,18.50
2006,07,14,12,47,18.60
2006,07,14,12,48,18.70
2006,07,14,12,49,18.80
2006,07,14,12,50,18.70
2006,07,14,12,51,18.70
2006,07,14,12,52,18.60
2006,07,14,12,53,18.80
2006,07,14,12,54,18.90
2006,07,14,12,55,19.00
2006,07,14,12,56,19.10
2006,07,14,12,57,19.30
2006,07,14,12,58,19.50
2006,07,14,12,59,19.70
2006,07,14,13,00,19.90
2006,07,14,13,01,20.10
2006,07,14,13,02,20.30
2006,07,14,13,03,20.50
2006,07,14,13,04,20.60
2006,07,14,13,05,20.60
2006,07,14,13,06,20.70
2006,07,14,13,07,20.80
2006,07,14,13,08,20.80
2006,07,14,13,09,20.80
2006,07,14,13,10,20.80
2006,07,14,13,11,20.70
2006,07,14,13,12,20.60
2006,07,14,13,13,20.60
2006,07,14,13,14,20.70
2006,07,14,13,15,20.90
2006,07,14,13,16,21.00
2006,07,14,13,17,21.20
2006,07,14,13,18,21.30
2006,07,14,13,19,21.40
2006,07,14,13,20,21.40
2006,07,14,13,21,21.30
2006,07,14,13,22,21.20
2006,07,14,13,23,21.20
2006,07,14,13,24,21.20
2006,07,14,13,25,21.00
2006,07,14,13,26,20.80
2006,07,14,13,27,20.50
2006,07,14,13,28,20.20
2006,07,14,13,29,20.00
2006,07,14,13,30,19.80
2006,07,14,13,31,19.70
2006,07,14,13,32,19.60
2006,07,14,13,33,19.50
2006,07,14,13,34,19.50
2006,07,14,13,35,19.40
2006,07,14,13,36,19.40
2006,07,14,13,37,19.50
2006,07,14,13,38,19.70
2006,07,14,13,39,19.90
2006,07,14,13,40,20.00
2006,07,14,13,41,20.20
2006,07,14,13,42,20.30
2006,07,14,13,43,20.40
2006,07,14,13,44,20.40
2006,07,14,13,45,20.50
2006,07,14,13,46,20.60
2006,07,14,13,47,20.60
2006,07,14,13,48,20.70
2006,07,14,13,49,20.70
2006,07,14,13,50,20.60
2006,07,14,13,51,20.50
2006,07,14,13,52,20.40
2006,07,14,13,53,20.40
2006,07,14,13,54,20.20
2006,07,14,13,55,20.20
2006,07,14,13,56,20.00
2006,07,14,13,57,19.90
2006,07,14,13,58,20.00
2006,07,14,13,59,20.10
2006,07,14,14,00,20.20
2006,07,14,14,01,20.20
2006,07,14,14,02,20.20
2006,07,14,14,03,20.20
2006,07,14,14,04,20.10
2006,07,14,14,05,19.40
2006,07,14,14,06,18.90
2006,07,14,14,07,18.50
2006,07,14,14,08,18.10
2006,07,14,14,09,17.60
2006,07,14,14,10,17.20
2006,07,14,14,11,16.90
2006,07,14,14,12,16.80
2006,07,14,14,13,16.70
2006,07,14,14,14,16.60
2006,07,14,14,15,16.40
2006,07,14,14,16,16.40
2006,07,14,14,17,16.40
2006,07,14,14,18,16.30
2006,07,14,14,19,16.40
2006,07,14,14,20,16.40
2006,07,14,14,21,16.50
2006,07,14,14,22,16.60
2006,07,14,14,23,16.70
2006,07,14,14,24,16.70
2006,07,14,14,25,16.80
2006,07,14,14,26,16.80
2006,07,14,14,27,16.80
2006,07,14,14,28,16.90
2006,07,14,14,29,16.90
2006,07,14,14,30,17.00
2006,07,14,14,31,17.00
2006,07,14,14,32,17.10
2006,07,14,14,33,17.00
2006,07,14,14,34,17.00
2006,07,14,14,35,16.90
2006,07,14,14,36,16.80
2006,07,14,14,37,16.80
2006,07,14,14,38,16.80
2006,07,14,14,39,16.90
2006,07,14,14,40,17.00
2006,07,14,14,41,17.10
2006,07,14,14,42,17.30
2006,07,14,14,43,17.30
2006,07,14,14,44,17.40
2006,07,14,14,45,17.40
2006,07,14,14,46,17.50
2006,07,14,14,47,17.70
2006,07,14,14,48,17.80
2006,07,14,14,49,17.90
2006,07,14,14,50,17.90
2006,07,14,14,51,17.90
2006,07,14,14,52,17.80
2006,07,14,14,53,17.70
2006,07,14,14,54,17.70
2006,07,14,14,55,17.70
2006,07,14,14,56,17.70
2006,07,14,14,57,17.70
2006,07,14,14,58,17.70
2006,07,14,14,59,17.70
2006,07,14,15,00,17.70
2006,07,14,15,01,17.60
2006,07,14,15,02,17.70
2006,07,14,15,03,17.70
2006,07,14,15,04,17.70
2006,07,14,15,05,17.70
2006,07,14,15,06,17.60
2006,07,14,15,07,17.70
2006,07,14,15,08,17.70
2006,07,14,15,09,17.70
2006,07,14,15,10,17.70
2006,07,14,15,11,17.50
2006,07,14,15,12,17.40
2006,07,14,15,13,17.40
2006,07,14,15,14,17.40
2006,07,14,15,15,17.30
2006,07,14,15,16,17.10
2006,07,14,15,17,17.00
2006,07,14,15,18,17.10
2006,07,14,15,19,17.10
2006,07,14,15,20,17.10
2006,07,14,15,21,17.00
2006,07,14,15,22,16.90
2006,07,14,15,23,16.80
2006,07,14,15,24,16.70
2006,07,14,15,25,16.80
2006,07,14,15,26,16.80
2006,07,14,15,27,16.90
2006,07,14,15,28,16.90
2006,07,14,15,29,16.90
2006,07,14,15,30,17.00
2006,07,14,15,31,17.10
2006,07,14,15,32,17.10
2006,07,14,15,33,17.10
2006,07,14,15,34,17.10
2006,07,14,15,35,17.10
2006,07,14,15,36,17.00
2006,07,14,15,37,17.00
2006,07,14,15,38,17.00
2006,07,14,15,39,17.00
2006,07,14,15,40,17.00
2006,07,14,15,41,17.10
2006,07,14,15,42,17.10
2006,07,14,15,43,17.20
2006,07,14,15,44,17.20
2006,07,14,15,45,17.30
2006,07,14,15,46,17.30
2006,07,14,15,47,17.40
2006,07,14,15,48,17.40
2006,07,14,15,49,17.50
2006,07,14,15,50,17.50
2006,07,14,15,51,17.70
2006,07,14,15,52,17.80
2006,07,14,15,53,17.90
2006,07,14,15,54,18.10
2006,07,14,15,55,18.20
2006,07,14,15,56,18.20
2006,07,14,15,57,18.20
2006,07,14,15,58,18.10
2006,07,14,15,59,18.10
2006,07,14,16,00,18.00
2006,07,14,16,01,17.90
2006,07,14,16,02,17.90
2006,07,14,16,03,17.90
2006,07,14,16,04,17.90
2006,07,14,16,05,17.80
2006,07,14,16,06,17.80
2006,07,14,16,07,17.90
2006,07,14,16,08,17.90
2006,07,14,16,09,17.90
2006,07,14,16,10,17.90
2006,07,14,16,11,17.80
2006,07,14,16,12,17.70
2006,07,14,16,13,17.60
2006,07,14,16,14,17.60
2006,07,14,16,15,17.60
2006,07,14,16,16,17.70
2006,07,14,16,17,17.80
2006,07,14,16,18,17.90
2006,07,14,16,19,17.90
2006,07,14,16,20,18.10
2006,07,14,16,21,18.10
2006,07,14,16,22,18.30
2006,07,14,16,23,18.40
2006,07,14,16,24,18.60
2006,07,14,16,25,18.80
2006,07,14,16,26,19.00
2006,07,14,16,27,19.20
2006,07,14,16,28,19.30
2006,07,14,16,29,19.40
2006,07,14,16,30,19.60
2006,07,14,16,31,19.70
2006,07,14,16,32,19.80
2006,07,14,16,33,19.90
2006,07,14,16,34,19.90
2006,07,14,16,35,20.10
2006,07,14,16,36,20.10
2006,07,14,16,37,20.10
2006,07,14,16,38,20.10
2006,07,14,16,39,20.20
2006,07,14,16,40,20.20
2006,07,14,16,41,20.30
2006,07,14,16,42,20.30
2006,07,14,16,43,20.30
2006,07,14,16,44,20.30
2006,07,14,16,45,20.30
2006,07,14,16,46,20.30
2006,07,14,16,47,20.40
2006,07,14,16,48,20.50
2006,07,14,16,49,20.60
2006,07,14,16,50,20.70
2006,07,14,16,51,20.90
2006,07,14,16,52,20.90
2006,07,14,16,53,20.90
2006,07,14,16,54,20.90
2006,07,14,16,55,20.90
2006,07,14,16,56,20.80
2006,07,14,16,57,20.80
2006,07,14,16,58,20.80
2006,07,14,16,59,20.70
2006,07,14,17,00,20.60
2006,07,14,17,01,20.60
2006,07,14,17,02,20.60
2006,07,14,17,03,20.70
2006,07,14,17,04,20.80
2006,07,14,17,05,20.80
2006,07,14,17,06,20.90
2006,07,14,17,07,21.00
2006,07,14,17,08,21.10
2006,07,14,17,09,21.10
2006,07,14,17,10,21.10
2006,07,14,17,11,21.10
2006,07,14,17,12,21.00
2006,07,14,17,13,21.00
2006,07,14,17,14,21.00
2006,07,14,17,15,21.00
2006,07,14,17,16,21.00
2006,07,14,17,17,21.10
2006,07,14,17,18,21.10
2006,07,14,17,19,21.00